Regional Weather Roundup
Issued by NWS Sterling, VA

Home | Current Version | Previous Version | Graphics & Text | Print | Product List | Glossary On
Versions: 1 2 3 4 5 6 7 8 9 10 11 12 13 14 15 16 17 18 19 20 21 22 23 24 25 26 27 28 29 30 31 32 33 34 35 36 37 38 39 40 41 42 43 44 45 46 47 48 49 50
160
ASUS41 KLWX 270511
RWRLWX

REGIONAL WEATHER ROUNDUP
NATIONAL WEATHER SERVICE BALTIMORE MD/WASHINGTON DC
100 AM EDT THU APR 27 2017

Note: "FAIR" indicates few or no clouds below 12,000 feet
with no significant weather and/or obstructions to visibility.
 TC=TEMPERATURE CELSIUS

 * =Non NWS site. Station does not report precipitation (e.g. rain,
    snow, etc.), thunder, or fog.

DCZ001-MDZ009-015-VAZ040>042-051-053>054-270600-
WASHINGTON METRO

CITY           SKY/WX    TMP DP  RH WIND       PRES   REMARKS
WASHINGTON NAT PTCLDY    61  58  90 CALM      29.85S
DULLES         CLEAR     59  56  89 E5        29.84S
ANDREWS AFB    CLEAR     57  56  95 SE3       29.84S
FT BELVOIR     CLEAR     57  55  94 CALM      29.84S
QUANTICO       CLEAR     62  60  93 SE5       29.84S
COLLEGE PARK*  CLEAR     54  54  98 CALM      29.84F
LEESBURG*      CLEAR     61  61 100 SE3       29.85S
MANASSAS*        N/A     58  56  93 CALM      29.84S

$$

MDZ006>007-011-014-270600-
BALTIMORE METRO

CITY           SKY/WX    TMP DP  RH WIND       PRES   REMARKS
BWI AIRPORT    PTCLDY    56  56 100 CALM      29.85R
MD SCIENCE CTR   N/A     60  56  86 MISG      29.85S
MARTIN STATE   PTCLDY    59  59 100 CALM      29.87R
ANNAPOLIS      CLEAR     59  58  96 CALM      29.84S FOG
FORT MEADE*    PTCLDY    52  50  93 CALM      29.87S

$$

MDZ012-015-019>023-270600-
MARYLAND EASTERN SHORE

CITY           SKY/WX    TMP DP  RH WIND       PRES   REMARKS
OCEAN CITY     FOG       50  49  96 CALM      29.87S VSB 1/2
SALISBURY      FOG       55  55 100 SE3       29.86S VSB 1/4
BAY BRIDGE AP* CLEAR     57  57 100 SE3       29.85S FOG
CAMBRIDGE*     FOG       55  55 100 SE3       29.86R VSB 3/4
EASTON*        CLEAR     58  56  94 SE5       29.89S

$$

MDZ017>025-270600-
SOUTHERN MARYLAND

CITY           SKY/WX    TMP DP  RH WIND       PRES   REMARKS
PATUXENT RIVER CLEAR     58  58 100 SE3       29.85S
ST INIGOES     CLEAR     60  58  92 E5        29.84S
LEONARDTOWN*   CLEAR     57  55  94 CALM      29.86S

$$

MDZ003>005-270600-
NORTH CENTRAL MARYLAND

CITY           SKY/WX    TMP DP  RH WIND       PRES   REMARKS
FREDERICK*     NOT AVBL
HAGERSTOWN APT CLEAR     61  56  83 CALM      29.82S
WESTMINSTER*   CLEAR     57  57 100 SE3       29.84F FOG

$$

MDZ501>502-270600-
WESTERN MARYLAND

CITY           SKY/WX    TMP DP  RH WIND       PRES   REMARKS
OAKLAND*       CLEAR     55  54  94 SE13      29.82S
CUMBERLAND*    CLEAR     61  59  94 N3        29.83S

$$

VAZ025>031-270600-
SHENANDOAH VALLEY

CITY           SKY/WX    TMP DP  RH WIND       PRES   REMARKS
WINCHESTER*    CLEAR     55  54  94 CALM      29.81S
FRONT ROYAL*   CLEAR     59  57  94 W3        29.80S
LURAY*         CLEAR     57  57 100 CALM      29.81S
NEW MARKET*    CLEAR     56  55  96 CALM      29.81R
STAUNTON*      CLEAR     58  56  92 CALM      29.84S
WAYNESBORO*    CLEAR     61  60  96 CALM      29.83F

$$

WVZ021-048>050-054>055-270600-
EASTERN WEST VIRGINIA PANHANDLE

CITY           SKY/WX    TMP DP  RH WIND       PRES   REMARKS
MARTINSBURG    CLEAR     58  56  93 CALM      29.81S
PETERSBURG*    CLEAR     57  57  97 CALM      29.80R

$$

VAZ036>039-050-270600-
CENTRAL FOOTHILLS

CITY           SKY/WX    TMP DP  RH WIND       PRES   REMARKS
CHARLOTTESVILL CLEAR     63  60  90 CALM      29.81S
CULPEPER*      MOCLDY    59  59 100 CALM      29.84S
ORANGE*        CLEAR     57  55  94 CALM      29.82S
GORDONSVILLE*  CLEAR     58  58 100 CALM      29.82R
WARRENTON*     PTCLDY    58  55  89 CALM      29.83R

$$

VAZ055>057-270600-
NORTH AND CENTRAL PIEDMONT

CITY           SKY/WX    TMP DP  RH WIND       PRES   REMARKS
FREDERICKSBRG* CLEAR     59  59 100 CALM      29.82S
STAFFORD*      CLEAR     57  57 100 CALM      29.87S

$$

NCZ024-NYZ072-PAZ021-071-VAZ022-071-270600-
OTHER REGIONAL OBSERVATIONS

CITY           SKY/WX    TMP DP  RH WIND       PRES   REMARKS
NEW YORK CITY  FOG       59  58  96 CALM      29.87S VSB 1
PHILADELPHIA   CLOUDY    62  56  80 CALM      29.86R
PITTSBURGH     PTCLDY    64  56  75 CALM      29.70S
ROANOKE        CLEAR     65  60  84 CALM      29.84S
RICHMOND       CLEAR     61  60  97 SE5       29.83S
RALEIGH        CLEAR     68  64  87 S6        29.84R

$$

ANZ530>537-270600-
MARINE OBSERVATIONS

STATION/POSITION TIME  TEMP    WIND        PRES
                       AIR SEA DIR/SP/G
                 (UTC) (F)     (DEG/KT/KT) (MB)
THOMAS PT LIGHT  0500   58 57  140/  3/  3   N/A
BALT KEY BRIDGE  0448   59     120/  2/  3 1010.7R
COVE POINT       0448   59     180/  6/  6 1011.3S
LEWISETTA        0448   61 62  140/  4/  5 1010.3F
SOLOMONS ISLAND  0442   59 60  130/  5/  5   N/A
PINEY POINT      0448          150/  8/  9   N/A

$$





USA.gov is the U.S. government's official web portal to all federal, state and local government web resources and services.